SCP
0 0 0 0 0 0 0 0 0 0 0 0 0 1 1 1 1 1 1 1 1 2 2 1 1 2 1 1 0 0 0 1 1 0 0 0 0 0 0 0 0 0 0
0 0 0 0 0 0 0 0 0 0 0 0 0 1 1 1 1 1 1 1 1 1 2 2 2 2 1 1 0 0 0 1 0 0 0 0 0 0 0 0 0 0 0
0 0 0 0 0 0 0 0 0 0 0 0 0 0 1 0 0 1 1 1 1 1 2 2 2 2 1 1 0 0 0 0 0 0 0 0 0 0 0 0 0 0 0
0 0 0 0 0 0 0 0 0 0 0 0 0 0 1 0 0 0 0 1 1 1 2 2 2 2 1 1 0 0 0 0 0 0 0 0 0 0 0 0 0 0 0
0 0 0 0 0 0 0 0 0 0 0 0 0 0 0 0 0 0 0 0 0 1 1 2 2 1 1 1 1 0 0 0 0 0 0 0 0 0 0 0 0 0 0
0 0 0 0 0 0 0 0 0 0 0 0 0 0 0 0 0 0 0 0 0 1 1 1 1 1 1 1 1 0 0 0 0 0 0 0 0 0 0 0 0 0 0
0 0 0 0 0 0 0 0 0 0 0 0 0 0 0 0 0 0 0 0 0 0 1 1 1 0 0 0 0 0 0 0 0 0 0 0 0 0 0 0 0 0 0
0 0 0 0 0 0 0 0 0 0 0 0 0 0 0 0 0 0 0 0 0 0 0 0 0 0 0 0 0 0 0 0 0 0 0 0 0 0 0 0 0 0 0
0 0 0 0 0 0 0 0 0 0 0 0 0 0 0 0 0 0 0 0 0 0 0 0 0 0 0 0 0 0 0 0 0 0 0 0 0 0 0 0 0 0 0
0 0 0 0 0 0 0 0 0 0 0 0 0 0 0 0 0 0 0 0 0 0 0 0 0 0 0 0 0 0 0 0 0 0 0 0 0 0 0 0 0 0 0
0 0 0 0 0 0 0 0 0 0 0 0 0 0 0 0 0 0 0 0 0 0 0 0 0 0 0 0 0 0 0 0 0 0 0 0 0 0 0 0 0 0 0
0 0 0 0 0 0 0 0 0 0 0 0 0 0 0 0 0 0 0 0 0 0 0 0 0 0 0 0 0 0 0 0 0 0 0 0 0 0 0 0 0 0 0
0 0 0 0 0 0 0 0 0 0 0 0 0 0 0 0 0 0 0 0 0 0 0 0 0 0 0 0 0 0 0 0 0 0 0 0 0 0 0 0 0 0 0
0 0 0 0 0 0 0 0 0 0 0 0 0 0 0 0 0 0 0 0 0 0 0 0 0 0 0 0 0 0 0 0 0 0 0 0 0 0 0 0 0 0 0
0 0 0 0 0 0 0 0 0 0 0 0 0 0 0 0 0 0 0 0 0 0 0 0 0 0 0 0 0 0 0 0 0 0 0 0 0 0 0 0 0 0 0
0 0 0 0 0 0 0 0 0 0 0 0 0 0 0 0 0 0 0 0 0 0 0 0 0 0 0 0 0 0 0 0 0 0 0 0 0 0 0 0 0 0 0
0 0 0 0 0 0 0 0 0 0 0 0 0 0 0 0 0 0 0 0 0 0 0 0 0 0 0 0 0 0 0 0 0 0 0 0 0 0 0 0 0 0 0
0 0 0 0 0 0 0 0 0 0 0 0 0 0 0 0 0 0 0 0 0 0 0 0 0 0 0 0 0 0 0 0 0 0 0 0 0 0 0 0 0 0 0
0 0 0 0 0 0 0 0 0 0 0 0 0 0 0 0 0 0 0 0 0 0 0 0 0 0 0 0 0 0 0 0 0 0 0 0 0 0 0 0 0 0 0
0 0 0 0 0 0 0 0 0 0 0 0 0 0 0 0 0 0 0 0 0 0 0 0 0 0 0 0 0 0 0 0 0 0 0 0 0 0 0 0 0 0 0
0 0 0 0 0 0 0 0 0 0 0 0 0 0 0 0 0 0 0 0 0 0 0 0 0 0 0 0 0 0 0 0 0 0 0 0 0 0 0 0 0 0 0
0 0 0 0 0 0 0 0 0 0 0 0 0 0 0 0 0 0 0 0 0 0 0 0 0 0 0 0 0 0 0 0 0 0 0 0 0 0 0 0 0 0 0
0 0 0 0 0 0 0 0 0 0 0 0 0 0 0 0 0 0 0 0 0 0 0 0 0 0 0 0 0 0 0 0 0 0 0 0 0 0 0 0 0 0 0
0 0 0 0 0 0 0 0 0 0 0 0 0 0 0 0 0 0 0 0 0 0 0 0 0 0 0 0 0 0 0 0 0 0 0 0 0 0 0 0 0 0 0
0 0 0 0 0 0 0 0 0 0 0 0 0 0 0 0 0 0 0 0 0 0 0 0 0 0 0 0 0 0 0 0 0 0 0 0 0 0 0 0 0 0 0
0 0 0 0 0 0 0 0 0 0 0 0 0 0 0 0 0 0 0 0 0 0 0 0 0 0 0 0 0 0 0 0 0 0 0 0 0 0 0 0 0 0 0
Wind_Speed
1 1 1 1 1 1 1 3 3 3 3 2 2 2 3 2 2 2 2 3 3 3 2 2 2 2 2 2 3 2 2 1 1 1 1 1 1 1 1 1 1 0 1
1 1 1 1 1 1 1 2 3 3 3 2 2 2 2 2 2 2 2 3 3 2 2 3 2 3 2 2 2 2 2 2 2 2 1 0 1 1 1 1 1 1 0
2 1 1 1 0 1 2 2 2 3 2 2 2 1 1 1 2 2 2 3 3 3 2 3 3 3 3 3 3 3 3 2 2 2 2 2 2 1 1 1 1 1 1
1 1 1 1 0 0 1 1 2 2 2 2 3 4 3 3 3 2 2 3 3 3 3 3 3 3 3 3 3 3 2 3 3 1 1 1 2 2 1 2 1 1 1
1 1 2 1 1 1 1 1 1 1 2 2 2 3 2 1 1 2 3 2 2 3 3 3 3 3 3 3 3 3 3 3 3 2 1 1 1 1 2 2 2 2 2
2 2 2 2 2 2 2 1 1 1 1 2 2 2 2 1 2 2 3 2 2 2 3 2 3 3 2 3 3 4 4 3 3 2 2 2 2 2 2 3 2 2 2
3 3 3 3 3 3 2 2 2 1 1 1 2 2 2 2 2 2 2 2 2 2 3 2 3 2 2 2 2 3 3 3 4 3 2 2 2 1 2 2 2 2 2
3 3 3 3 2 3 2 2 2 2 1 1 0 1 1 1 1 1 1 2 2 2 2 3 2 2 2 2 2 2 2 2 3 3 3 2 2 1 2 2 2 2 2
3 3 4 4 3 3 3 3 2 3 2 2 2 1 1 0 0 0 1 1 1 1 2 3 2 2 2 3 3 2 2 2 2 2 3 2 2 1 1 1 2 3 3
3 3 4 4 3 3 3 3 3 3 3 3 2 1 1 1 1 1 1 0 0 0 2 2 3 2 2 2 2 2 2 2 2 2 2 3 2 2 2 2 2 2 3
2 3 3 3 3 3 3 3 3 3 3 3 2 2 2 2 2 1 1 0 0 0 1 1 2 2 2 2 2 2 2 3 2 2 2 3 2 2 2 2 2 2 2
2 2 2 3 3 3 3 3 3 3 3 2 2 2 2 2 2 2 2 1 1 0 1 1 2 2 2 2 2 2 2 3 3 3 2 3 2 2 2 2 3 3 3
2 3 3 3 3 2 2 2 2 2 2 2 2 3 3 3 2 2 2 2 1 1 1 1 1 1 2 2 2 2 3 3 3 3 3 3 2 3 2 2 2 2 3
2 2 2 3 3 3 2 2 2 2 2 2 2 2 2 2 2 2 2 2 2 1 1 0 0 1 1 1 1 2 2 3 3 2 3 3 3 3 3 3 3 2 2
1 2 2 2 2 2 2 2 2 2 2 2 2 2 2 2 2 2 2 2 2 1 1 1 1 0 0 0 1 1 2 2 2 2 2 2 2 2 3 3 3 3 2
1 2 2 2 2 2 2 2 2 2 2 1 2 2 2 2 2 2 2 2 2 2 1 1 1 0 0 1 0 0 1 2 2 1 1 1 1 2 3 4 4 4 4
1 2 2 2 2 2 2 2 3 3 2 2 2 3 2 2 2 2 2 2 2 2 2 1 1 1 1 1 1 1 1 1 2 2 1 1 1 2 2 3 4 4 4
2 2 2 3 3 2 2 2 2 2 2 2 2 3 3 3 2 2 2 2 2 2 2 1 1 1 2 2 1 1 1 1 2 2 2 2 2 2 2 2 3 3 4
2 2 3 3 3 2 2 2 2 2 3 3 3 3 3 3 3 2 2 2 2 2 2 2 2 2 2 3 2 2 1 1 1 2 2 2 2 4 3 3 3 4 4
3 3 3 4 3 3 3 2 2 2 3 3 3 3 3 2 2 2 2 2 2 2 2 2 2 2 2 3 3 3 1 1 1 1 1 2 3 4 4 3 4 5 5
3 3 3 3 3 4 3 2 2 3 4 4 4 3 3 3 2 2 2 2 2 2 2 2 2 2 2 4 4 4 2 2 2 2 2 2 4 5 6 5 4 6 5
3 3 3 3 4 4 3 3 3 4 4 4 3 3 3 3 2 2 2 2 1 1 1 2 2 2 2 3 4 5 4 3 3 3 2 3 5 6 7 5 5 6 4
3 3 3 3 4 4 3 3 4 4 4 3 3 3 3 3 3 2 2 2 1 1 1 2 2 2 2 3 5 5 6 6 4 3 5 6 6 7 5 6 6 4 2
2 2 2 2 3 4 3 3 4 4 3 3 3 3 3 3 3 2 2 2 1 1 2 2 2 3 2 2 3 3 3 5 4 3 4 6 6 5 5 4 3 2 2
2 2 2 2 3 3 3 3 3 3 3 3 3 3 2 2 3 2 2 2 2 2 2 2 2 3 3 4 7 5 4 3 4 4 3 2 2 2 2 2 2 2 2
2 2 2 2 3 3 3 3 2 2 2 2 2 2 2 2 2 2 3 4 4 5 5 5 4 4 6 8 9 9 8 8 7 3 3 3 3 3 3 3 3 2 3
Wind_Direction
181 141 148 145 146 152 172 166 161 161 151 158 175 173 172 164 155 154 155 160 158 161 156 156 165 169 174 179 173 160 157 157 122 84 352 312 242 200 188 170 146 164 177
176 107 95 102 119 164 199 179 166 168 171 178 186 182 167 173 168 158 163 170 163 163 172 162 172 177 175 174 175 161 160 167 154 141 130 316 314 295 233 165 168 199 175
176 143 106 87 72 194 198 193 175 169 171 157 135 128 132 133 161 180 184 188 177 174 173 173 171 177 181 186 186 180 174 174 190 171 158 163 216 282 280 232 201 208 203
134 133 120 101 112 279 189 174 156 157 153 151 156 165 182 187 193 186 184 189 180 172 176 179 181 184 188 193 190 184 186 170 183 204 226 188 161 156 266 291 265 233 229
118 113 113 93 54 24 90 120 117 133 135 145 164 179 197 198 173 162 164 178 178 176 181 180 180 184 190 193 189 187 188 182 184 183 187 212 239 172 181 240 269 283 260
95 81 76 63 37 36 50 89 105 110 124 142 165 184 195 183 169 171 173 180 180 184 186 182 181 186 191 195 195 194 187 191 195 192 184 181 186 191 194 218 230 246 255
84 72 64 53 37 33 36 58 80 71 92 141 175 187 193 196 190 182 186 181 183 192 193 185 189 186 193 194 185 185 190 188 192 197 203 206 216 191 194 210 233 246 254
83 73 59 46 40 41 39 46 53 48 47 63 159 156 173 199 211 198 185 194 200 199 189 186 190 185 184 186 178 180 190 192 197 201 197 203 219 215 208 203 203 255 264
76 71 61 46 34 35 34 41 43 39 35 28 32 35 35 55 189 175 162 179 217 195 181 183 184 188 184 181 172 177 184 187 202 205 197 206 217 220 222 212 195 201 239
71 64 61 48 34 39 37 41 41 39 32 24 23 31 25 28 43 100 130 137 246 162 168 177 178 180 182 174 170 169 173 177 198 202 197 210 213 213 217 218 223 217 224
91 72 60 51 40 44 47 45 41 40 33 22 18 26 26 28 38 41 36 62 62 158 157 161 167 178 180 170 172 181 176 188 200 200 198 218 219 218 221 219 226 232 226
88 82 75 60 45 45 44 41 34 37 30 24 23 28 32 36 37 22 12 21 48 84 122 131 156 176 181 175 181 193 193 198 203 206 203 218 218 225 224 220 228 234 231
86 65 55 48 29 31 36 39 34 29 26 31 35 37 32 31 29 19 14 19 29 52 91 108 153 171 178 182 192 196 199 206 209 205 206 214 207 225 233 232 235 242 248
88 65 44 35 17 20 23 25 23 25 28 35 40 40 27 21 18 11 11 14 18 19 52 90 138 166 171 183 196 199 201 205 209 209 212 212 213 223 225 229 237 239 244
73 51 28 16 9 16 11 15 8 15 18 27 35 26 19 21 24 15 8 17 14 8 5 33 47 57 203 221 207 213 206 200 202 204 207 206 213 230 228 230 227 219 229
19 19 17 11 8 6 354 356 355 2 14 18 14 18 22 24 22 10 10 16 12 9 16 13 11 27 316 328 280 247 222 208 205 218 231 220 215 253 253 252 239 223 221
1 3 357 350 351 348 347 343 343 352 11 16 13 10 10 10 6 0 9 15 13 11 12 11 3 325 305 326 291 256 210 212 225 226 227 251 253 241 253 260 257 252 248
6 357 352 350 355 359 356 353 0 1 8 15 7 2 358 357 357 1 359 352 358 3 354 353 343 329 326 332 328 295 227 219 235 239 231 240 255 254 247 246 255 257 259
11 4 360 358 5 9 360 6 10 8 10 1 352 348 347 347 348 349 341 339 340 343 337 344 346 337 326 328 334 337 269 251 252 249 238 238 251 265 259 251 256 266 272
32 21 14 14 14 7 7 22 12 8 353 340 336 336 339 337 332 334 332 333 329 329 331 334 336 335 334 337 339 339 304 290 292 280 266 259 267 272 262 253 253 262 269
33 27 28 25 14 6 11 18 12 354 338 336 337 341 342 332 330 338 338 333 337 338 337 333 333 331 330 330 338 342 327 296 289 285 285 279 282 281 274 267 258 266 277
34 28 27 20 15 13 16 15 2 349 349 344 344 345 344 340 343 344 339 341 342 337 334 335 333 335 330 327 330 333 324 321 295 287 290 287 287 284 284 281 282 284 284
30 21 18 16 15 13 13 5 349 352 350 350 346 342 342 344 346 341 340 342 345 337 331 332 325 328 331 323 324 323 321 315 300 287 287 288 285 285 282 283 286 286 269
26 17 11 4 0 2 7 2 354 355 352 345 342 343 346 347 347 338 337 332 327 327 325 315 311 313 315 317 319 315 313 314 306 298 293 290 288 288 291 290 284 271 258
16 15 355 339 341 350 353 357 360 3 351 337 338 339 342 338 332 329 314 306 294 289 294 288 288 293 297 304 310 312 305 303 297 309 299 285 279 277 281 281 276 269 264
2 352 337 327 327 334 335 348 354 359 347 332 332 328 326 328 326 324 321 314 311 312 313 311 308 295 299 310 311 309 309 310 311 307 286 284 276 270 269 266 267 263 258